Location: Overspoor
(51.4747°N, 5.6641°E)
Time: 07:17:41
(UTC+02:00)

STARS - Visible Passes

Search period start: 26 June 2022 00:00
Search period end: 06 July 2022 00:00
Orbit: 622 x 636 km, 98.2° (Epoch: 25 June)

Date Brightness Start Highest point End Pass type
(mag) Time Alt. Az. Time Alt. Az. Time Alt. Az.
26 Jun ? 00:12:22 10° NNE 00:16:43 56° ESE 00:19:40 19° S visible
26 Jun ? 01:49:18 10° N 01:52:38 21° WNW 01:55:58 10° WSW visible
26 Jun ? 22:58:16 10° ENE 22:59:53 12° E 23:01:30 10° ESE visible
27 Jun ? 00:32:25 10° NNE 00:36:51 86° ESE 00:39:59 19° SSW visible
27 Jun ? 02:09:58 10° NNW 02:12:31 15° NW 02:15:04 10° W visible
27 Jun ? 23:17:14 10° NE 23:20:14 18° E 23:22:56 11° SE visible
28 Jun ? 00:52:34 10° N 00:56:56 62° WNW 01:00:17 16° SSW visible
28 Jun ? 02:31:14 10° NW 02:32:20 11° NW 02:33:26 10° WNW visible
28 Jun ? 23:36:49 10° NE 23:40:32 26° E 23:43:15 15° SE visible
29 Jun ? 01:12:49 10° N 01:16:57 41° WNW 01:20:36 13° SW visible
29 Jun ? 23:56:38 10° NNE 00:00:46 40° E 00:03:33 19° SSE visible
30 Jun ? 01:33:09 10° N 01:36:55 28° WNW 01:40:39 10° WSW visible
01 Jul ? 00:16:35 10° NNE 00:20:58 61° ESE 00:23:51 20° S visible
01 Jul ? 01:53:38 10° NNW 01:56:50 20° WNW 02:00:01 10° WSW visible
01 Jul ? 23:02:12 10° ENE 23:04:09 13° E 23:06:05 10° ESE visible
02 Jul ? 00:36:39 10° NNE 00:41:04 87° WNW 00:44:08 19° SSW visible
02 Jul ? 02:14:20 10° NNW 02:16:42 14° NW 02:19:02 10° W visible
02 Jul ? 23:21:20 10° NE 23:24:30 19° E 23:27:05 12° SE visible
03 Jul ? 00:56:49 10° N 01:01:08 58° WNW 01:04:26 16° SW visible
03 Jul ? 02:36:08 10° NW 02:36:29 10° NW 02:36:50 10° NW visible
03 Jul ? 23:40:57 10° NE 23:44:46 28° E 23:47:23 16° SE visible
04 Jul ? 01:17:03 10° N 01:21:08 38° WNW 01:24:44 13° SW visible
05 Jul ? 00:00:47 10° NNE 00:04:59 43° E 00:07:40 20° SSE visible
05 Jul ? 01:37:24 10° N 01:41:05 27° WNW 01:44:44 10° WSW visible
